Theta_e
282 284 284 283 285 285 283 283 281 284 284 286 285 285 285 286 287 287 288 288 288 287 287 287 286 286 285 285 286 287 286 285 284 284 283 283 283 282 282 282 281 281 281 281
278 283 285 283 285 285 284 282 282 283 286 290 291 288 285 285 285 285 286 287 286 285 285 286 286 285 286 285 285 287 285 283 283 283 282 282 281 281 281 282 282 282 282 282
276 283 282 280 283 284 285 284 282 278 283 287 289 286 285 287 286 286 286 286 286 285 285 285 286 287 285 285 285 284 283 282 282 281 281 281 281 281 281 281 281 281 281 281
277 280 276 283 288 288 286 285 284 283 285 288 291 292 290 291 290 288 286 286 287 286 286 285 285 285 284 284 283 282 281 281 281 281 280 280 280 280 280 280 280 280 280 280
276 276 282 284 285 283 283 284 284 282 284 286 292 293 291 292 293 293 290 290 289 288 286 285 285 284 283 282 281 281 280 280 280 280 279 279 279 279 279 279 279 278 278 278
278 275 275 282 286 289 286 281 288 285 284 285 289 286 287 290 293 293 293 290 287 286 285 284 283 283 281 280 280 280 280 280 280 280 280 279 279 278 279 279 278 278 277 278
277 277 282 285 287 288 280 281 288 286 285 285 284 286 289 290 291 292 292 288 287 286 284 282 282 282 280 280 279 280 280 280 280 280 280 279 278 278 278 277 277 277 276 277
278 275 276 286 288 283 286 288 287 286 286 285 287 287 288 287 287 288 287 287 285 283 282 283 283 282 280 278 279 280 280 279 279 279 279 279 278 278 278 277 277 276 276 276
281 283 286 287 286 288 287 286 286 285 286 286 287 286 287 285 284 284 284 283 285 283 281 282 283 283 279 278 278 278 278 278 278 279 279 279 278 277 277 277 277 276 276 275
282 286 287 287 285 284 284 284 285 285 285 287 287 286 285 285 283 282 282 282 283 282 281 280 281 281 279 279 279 279 277 277 278 277 277 278 278 278 278 277 276 276 275 275
281 284 286 282 282 283 284 284 283 284 285 284 286 284 285 283 282 281 280 281 282 281 281 279 279 278 279 279 279 277 277 276 277 277 277 276 276 276 275 275 277 276 276 275
278 283 284 284 282 282 282 281 281 282 283 283 283 283 282 280 280 280 280 281 280 280 280 278 278 278 279 280 280 278 277 278 278 277 276 276 275 275 278 277 278 277 276 275
281 281 282 282 282 281 281 280 279 279 279 281 279 281 280 278 278 278 279 280 280 279 279 279 278 278 280 281 281 280 279 277 277 276 276 275 275 275 272 275 277 275 275 275
281 280 280 281 280 278 278 278 276 276 275 275 276 277 277 276 276 275 275 279 280 280 279 279 277 276 279 281 280 279 278 276 277 276 276 276 275 275 274 273 271 271 272 271
279 279 279 276 276 275 274 274 274 274 274 275 274 275 276 274 272 271 271 275 279 278 277 276 274 270 273 276 276 276 276 276 276 275 275 274 274 273 273 272 271 269 269 269
275 271 268 269 272 272 271 271 274 273 272 272 272 271 270 270 269 269 270 271 278 274 269 269 267 266 268 272 273 272 272 272 273 273 273 273 273 271 271 270 269 268 267 266
271 272 268 271 270 270 270 269 270 273 271 271 270 269 268 268 268 268 266 267 267 267 268 267 264 262 266 271 274 274 273 273 271 273 272 272 271 270 269 268 267 266 265 265
272 272 271 273 273 271 267 268 269 269 269 270 268 269 268 269 270 266 265 265 265 264 264 263 264 264 266 270 273 274 273 272 272 270 270 269 269 268 267 266 265 264 264 264
266 269 268 270 268 266 269 270 269 268 268 268 269 269 268 267 268 267 268 267 268 268 264 264 270 267 268 269 272 273 272 270 269 269 267 264 266 266 265 265 264 263 262 262
266 266 267 265 262 263 265 265 267 267 267 269 267 267 266 264 264 265 267 264 262 264 266 266 268 268 267 267 271 271 270 270 268 267 267 266 265 264 263 259 259 261 262 262
267 267 266 265 263 261 262 266 267 267 266 267 270 268 267 265 264 265 270 269 263 263 265 266 269 269 268 268 270 270 269 268 267 266 265 264 262 262 262 262 261 261 261 260
267 266 266 265 265 265 264 267 268 266 267 266 264 264 265 265 264 263 260 268 265 263 267 268 267 265 266 267 269 268 266 265 264 264 263 263 263 262 262 261 260 260 260 259
268 267 266 265 267 268 266 267 267 268 266 265 265 267 271 271 272 271 269 264 266 265 267 266 263 264 265 267 266 265 264 264 263 263 262 261 261 260 259 259 259 258 258 258
267 268 267 266 265 267 268 266 268 267 265 266 264 264 268 268 267 267 266 264 264 266 266 265 266 267 265 265 265 264 263 263 261 261 260 255 259 258 258 258 257 258 257 257
267 266 265 265 269 272 268 266 265 265 265 266 265 265 266 267 270 266 266 265 266 266 265 265 266 264 264 264 263 262 262 261 260 259 258 258 257 257 257 257 256 256 257 257
268 270 270 270 274 271 269 269 270 269 268 267 266 266 266 266 265 266 266 265 265 264 264 263 262 263 262 262 261 260 260 259 258 258 256 256 256 256 256 256 256 256 257 257
269 268 269 269 270 270 270 272 270 268 268 269 267 265 265 265 265 264 264 263 263 263 262 261 261 261 261 260 259 258 258 258 256 256 256 256 256 256 256 256 256 256 256 256
Wind_Speed
17 20 20 20 16 13 10 10 6 12 14 12 10 13 8 6 5 4 9 11 10 12 13 13 16 14 15 15 14 19 17 18 15 14 13 12 11 11 10 9 9 8 8 7
18 14 9 16 8 11 8 13 11 17 11 14 14 11 9 8 6 6 7 10 12 10 11 14 15 15 17 15 15 17 16 15 14 14 12 10 11 10 10 9 8 7 7 7
8 12 17 2 11 8 4 10 11 9 13 20 13 12 15 10 7 7 8 9 10 12 11 12 13 14 17 14 13 16 15 13 13 12 12 11 10 10 9 9 7 7 6 6
9 14 1 3 6 2 9 10 18 17 19 18 15 10 10 15 8 9 9 10 11 12 14 12 13 14 15 14 15 14 13 13 12 12 11 10 10 9 8 7 6 6 6 5
5 8 6 3 12 7 5 8 15 17 20 15 17 10 11 18 12 10 12 11 11 10 12 11 12 13 14 13 14 12 12 13 12 12 11 9 9 8 7 6 6 5 5 5
4 6 4 6 13 8 5 6 12 13 14 17 16 8 9 16 13 11 11 12 12 12 12 12 10 11 14 12 11 11 12 11 11 11 10 10 9 8 4 5 6 5 6 5
7 5 4 6 17 2 3 4 14 11 12 13 9 6 10 12 14 12 11 12 12 11 11 11 10 11 12 10 11 11 12 12 10 9 9 9 8 6 6 6 6 5 6 5
2 3 3 10 5 6 3 5 6 6 9 12 9 9 10 12 12 11 11 10 11 11 10 9 9 11 11 11 9 11 12 11 10 9 7 7 8 6 6 5 6 4 4 4
4 2 2 3 2 4 6 6 5 6 9 10 8 7 7 8 9 9 9 8 7 11 11 8 8 9 12 8 11 11 11 11 9 9 8 7 7 6 4 4 3 3 3 3
3 2 2 2 2 1 4 5 7 5 6 7 6 5 6 6 6 6 6 8 7 10 11 9 7 9 11 10 11 12 11 9 8 8 8 8 6 3 3 3 3 3 3 2
5 9 4 2 0 3 6 5 7 5 3 8 6 8 7 7 7 6 6 6 8 9 10 9 9 10 9 10 11 11 9 7 8 7 7 6 5 4 4 4 3 2 4 3
5 3 1 3 2 2 3 5 8 9 6 8 9 6 7 7 6 6 7 6 9 9 10 9 10 10 8 8 10 10 8 6 6 6 5 5 5 6 10 8 9 11 9 5
1 3 2 1 1 2 3 4 5 5 4 4 6 5 4 4 5 6 6 7 8 8 8 9 11 10 8 8 8 8 8 7 5 5 5 5 5 5 6 7 10 10 9 9
3 2 4 3 2 1 1 3 1 1 2 3 3 4 5 3 4 7 7 7 8 9 9 9 10 9 6 7 8 9 8 8 5 5 5 4 4 4 4 4 3 3 6 6
7 5 3 2 3 1 3 3 4 3 3 2 4 5 5 5 6 5 5 4 8 10 8 7 8 7 5 6 9 8 7 5 5 5 4 5 5 4 4 4 3 2 1 2
3 4 3 2 3 1 1 1 2 2 0 1 6 6 6 5 5 6 4 4 5 7 5 7 6 2 4 7 9 7 7 7 6 6 5 5 5 5 4 3 3 1 0 1
5 1 2 3 5 4 4 1 2 2 3 3 6 6 6 6 6 7 6 7 9 8 6 4 5 3 5 6 8 6 6 5 6 6 5 4 4 4 4 3 2 1 1 1
3 4 5 3 3 5 4 4 3 4 3 5 6 6 4 0 6 6 5 6 7 9 8 6 4 4 6 5 6 6 5 5 5 5 5 5 4 4 3 3 2 1 1 3
3 3 4 3 3 4 4 5 4 4 6 6 7 6 5 5 5 4 3 5 6 7 2 2 5 6 6 5 6 5 6 6 6 6 5 5 4 3 3 1 1 1 2 3
5 2 4 3 2 1 3 2 6 6 4 6 8 7 6 4 4 5 4 6 3 3 3 4 5 6 5 5 5 5 6 6 6 5 4 4 4 3 2 0 2 3 3 4
6 6 5 5 4 2 1 3 6 7 5 5 6 7 6 5 3 2 5 5 2 3 5 5 4 4 4 4 6 6 6 5 5 5 4 3 2 1 1 1 2 3 4 4
5 6 5 6 5 4 2 3 6 6 6 6 6 7 8 6 5 5 3 4 5 3 4 4 4 6 5 6 5 5 6 6 5 4 3 1 1 0 1 2 2 3 4 5
5 4 5 6 6 7 5 3 5 6 6 7 7 7 5 4 3 4 3 2 4 4 5 5 7 7 6 5 5 5 6 5 4 3 2 1 1 1 2 3 4 5 6 6
6 6 5 5 6 7 8 4 5 6 4 6 6 3 6 4 3 4 7 7 7 5 6 6 7 7 6 4 4 5 4 3 3 2 2 1 0 1 2 4 5 6 6 7
6 6 6 7 7 5 7 6 6 6 5 6 5 3 3 4 2 5 6 6 9 7 6 7 8 7 5 4 4 3 3 2 2 1 0 1 2 2 4 5 6 7 7 8
7 6 5 5 3 6 6 6 5 5 5 5 3 3 3 4 5 5 6 7 5 7 6 5 3 4 4 4 4 3 2 2 2 2 1 2 3 4 5 6 7 7 8 9
5 5 4 3 3 5 5 5 6 6 4 4 4 3 4 5 5 5 6 6 5 4 5 4 3 3 3 3 3 3 2 1 2 2 2 3 4 5 6 7 7 8 8 9
Wind_Direction
278 281 286 279 291 317 330 346 290 321 311 318 341 333 328 332 358 54 90 88 91 99 107 108 111 105 98 107 111 113 108 112 111 109 109 117 117 111 117 106 103 115 115 111
292 277 262 294 303 334 3 354 334 318 307 334 353 345 1 10 24 51 72 94 91 84 102 110 103 112 104 104 105 103 108 106 109 105 109 110 107 111 108 112 120 116 113 115
272 311 312 208 -0 324 300 22 347 343 308 314 342 2 2 16 36 62 72 75 80 86 84 88 103 111 101 104 106 101 106 110 113 116 113 114 118 116 117 118 123 119 111 115
288 311 47 39 38 258 317 22 6 344 335 330 327 334 22 19 49 71 82 85 92 89 87 86 92 98 103 105 101 106 118 121 115 116 113 114 114 113 108 115 120 119 114 107
296 305 291 93 10 342 339 22 15 349 340 337 334 319 26 14 29 57 92 91 84 87 90 96 104 102 102 100 106 122 117 110 112 116 115 113 108 110 113 115 113 109 102 103
311 295 337 32 346 336 210 33 14 348 347 348 340 14 5 357 24 61 79 98 99 95 98 98 92 96 103 112 116 113 112 112 108 115 118 114 114 111 107 109 105 101 95 89
255 274 282 359 315 350 10 317 329 342 351 352 3 337 330 8 31 45 72 87 95 88 88 96 98 104 103 108 98 106 107 102 104 106 110 109 105 107 115 106 107 105 102 87
255 270 306 359 6 43 283 291 302 341 359 345 353 358 14 27 35 46 55 71 90 97 97 98 108 115 103 94 103 105 104 104 102 99 99 107 108 102 93 106 96 96 96 99
242 317 131 31 16 316 297 285 327 337 341 344 359 19 25 33 36 42 59 57 72 97 99 93 96 116 112 110 105 101 104 106 105 101 99 103 102 92 96 86 106 108 127 122
284 94 173 234 267 358 307 309 322 328 319 345 13 37 54 65 56 60 51 72 91 98 100 97 93 94 109 122 122 113 110 109 108 101 92 83 90 100 118 113 111 123 124 114
252 277 278 166 20 336 336 6 359 339 10 14 13 42 48 49 54 66 64 60 77 91 91 85 91 99 110 118 118 109 110 108 104 97 96 93 72 70 86 47 53 100 74 67
229 105 351 107 114 345 357 14 9 357 358 35 31 59 70 55 39 53 63 71 83 91 100 103 105 106 112 112 113 120 116 110 101 106 121 126 126 100 85 99 82 87 79 75
94 27 15 59 82 21 335 21 20 12 7 5 33 38 53 70 57 57 61 70 80 90 95 100 101 101 103 106 118 125 124 124 124 128 131 133 130 140 124 101 90 68 60 48
159 164 230 174 160 353 4 18 8 342 25 36 41 48 66 71 72 69 55 60 79 82 81 87 91 80 75 112 111 104 106 113 130 121 127 136 128 126 133 143 141 101 55 48
216 197 79 59 275 307 14 360 17 33 23 60 56 71 82 89 71 61 42 50 89 92 91 94 95 71 39 88 109 120 122 109 114 111 103 101 110 108 93 86 81 83 101 143
77 81 51 230 304 301 359 22 173 187 36 322 92 74 75 93 115 89 41 19 110 99 69 83 90 52 29 80 92 86 84 93 101 115 120 105 90 90 102 105 101 82 59 27
108 126 148 246 214 201 213 108 303 171 118 106 109 113 88 69 77 71 56 49 70 71 68 76 77 22 46 53 91 98 108 107 106 98 94 99 101 88 81 94 100 70 357 331
75 61 63 56 155 162 184 190 159 121 113 121 104 96 86 59 106 97 90 89 87 68 48 39 40 64 63 58 91 109 114 106 97 100 96 87 92 98 85 78 70 331 298 295
159 135 131 129 119 128 135 148 148 121 120 130 120 96 81 77 105 114 108 81 84 97 62 244 101 91 86 82 95 97 100 103 92 85 93 108 85 75 73 55 21 296 288 285
159 154 121 121 77 89 129 79 119 107 95 99 106 117 116 90 71 80 60 78 51 100 159 103 81 82 77 67 93 97 94 93 95 88 81 86 88 92 91 307 307 297 298 300
165 162 163 161 164 144 102 130 127 140 140 122 131 129 121 110 86 147 155 120 85 61 88 88 93 101 85 81 74 85 94 100 99 103 97 97 135 131 246 288 287 290 299 298
152 165 166 156 152 136 144 152 119 119 125 111 100 117 129 127 126 89 36 71 135 170 119 106 92 72 98 93 99 98 91 88 91 95 101 126 143 294 311 304 300 297 290 283
143 144 137 151 152 136 124 106 112 120 133 133 141 151 139 131 114 117 111 89 114 99 93 81 97 100 99 92 95 97 97 99 108 109 97 70 38 346 312 298 296 292 282 279
131 134 125 109 113 122 132 146 123 103 98 112 108 93 128 127 88 60 80 104 104 97 91 117 114 102 100 98 95 99 112 119 110 101 102 185 259 269 266 273 275 274 276 276
126 117 120 139 148 146 123 134 111 111 113 111 111 106 63 41 19 133 124 113 128 120 113 114 109 100 95 98 97 85 80 69 65 59 345 304 276 264 269 271 267 272 277 278
146 153 156 158 138 141 143 162 147 145 142 142 127 125 93 74 98 116 118 122 122 121 122 135 128 109 109 108 99 93 98 128 202 231 291 277 272 272 271 273 276 278 278 280
111 120 133 135 149 149 158 162 146 153 162 157 122 146 138 138 131 127 130 127 124 121 120 122 133 119 115 132 129 134 137 197 236 282 273 270 266 269 272 274 277 279 281 281